Date,TemperatureHighF,TemperatureAvgF,TemperatureLowF,DewpointHighF,DewpointAvgF,DewpointLowF,HumidityHigh,HumidityAvg,HumidityLow,PressureMaxIn,PressureMinIn,WindSpeedMaxMPH,WindSpeedAvgMPH,GustSpeedMaxMPH,PrecipitationSumIn
2013-1-9,55.4,51.7,48.9,43.9,36.7,26.0,74,57,37,30.41,29.44,14,4,21,0.00
2013-1-10,58.3,46.4,39.7,30.3,28.2,23.1,64,50,29,30.62,30.40,17,4,20,0.00
2013-1-11,50.9,42.1,36.0,42.8,34.4,25.4,99,76,53,30.49,30.10,7,1,10,0.05
2013-1-12,59.0,45.8,39.7,50.2,44.1,39.5,99,94,71,30.18,30.07,3,1,10,0.00
2013-1-13,62.1,50.5,41.7,54.1,47.7,41.5,99,91,73,30.10,29.96,7,1,8,0.00
2013-1-14,52.2,45.3,37.4,41.0,36.7,32.8,96,73,58,30.35,30.16,14,4,21,0.25
2013-1-15,39.7,36.6,33.1,36.4,33.0,31.1,97,87,72,30.37,30.18,7,2,10,0.55
2013-1-16,56.5,35.5,32.2,39.4,34.4,31.4,99,96,76,30.18,29.84,12,1,16,1.40
2013-1-17,44.1,39.2,34.9,36.0,27.6,17.2,79,64,35,30.15,29.99,11,1,17,0.00
2013-1-18,37.4,32.6,28.0,25.4,12.3,1.5,68,44,23,30.51,30.10,16,3,24,0.04
2013-1-19,61.0,44.2,32.4,25.0,21.1,15.7,60,41,23,30.38,29.92,10,4,17,0.00
2013-1-20,54.9,44.3,33.3,29.3,16.7,2.4,54,34,21,30.10,29.83,17,6,26,0.00
2013-1-21,43.9,31.6,23.9,17.3,11.9,5.5,59,44,26,30.11,29.80,22,5,27,0.00
2013-1-22,23.9,16.3,12.2,5.7,-9.4,-13.7,45,29,22,30.32,30.00,19,8,25,0.00
2013-1-23,23.4,17.7,11.5,7.4,-5.6,-11.6,63,34,24,30.36,30.15,16,4,21,0.00
2013-1-24,25.3,18.4,14.2,11.7,1.8,-10.3,83,51,25,30.58,30.11,17,5,25,0.00
2013-1-25,21.6,17.4,13.6,15.6,4.0,-8.3,83,57,33,30.56,30.08,8,2,14,0.00
2013-1-26,34.0,25.2,16.7,24.7,17.4,10.4,84,72,49,30.47,30.09,12,2,16,0.06
2013-1-27,27.1,25.9,24.6,11.4,10.3,9.2,53,51,49,30.52,30.46,7,3,12,0.00
2013-1-28,52.7,44.6,31.1,44.1,39.0,29.8,96,81,72,30.32,30.01,8,2,17,0.11
2013-1-29,72.9,59.6,50.0,54.5,50.1,43.8,89,72,52,30.08,29.90,8,2,14,0.00
2013-1-30,72.0,58.1,52.7,59.2,54.1,47.8,99,87,63,29.90,29.22,16,2,30,1.33
2013-1-31,54.7,37.8,29.1,53.8,22.0,6.3,97,54,33,29.89,29.14,24,9,34,0.31
2013-2-1,29.7,22.3,14.7,21.6,2.8,-6.3,88,43,27,30.40,29.81,23,8,33,0.00
2013-2-2,28.8,20.1,10.2,19.9,6.2,-3.6,71,55,37,30.40,29.99,7,2,10,0.00
2013-2-3,34.9,28.3,23.0,26.8,19.5,5.8,83,70,41,30.00,29.79,23,3,28,0.01
2013-2-4,41.7,30.5,23.2,21.2,11.3,5.2,60,45,31,30.09,29.86,17,4,25,0.00
2013-2-5,40.1,34.1,30.7,33.1,27.8,19.8,92,78,58,29.93,29.82,5,1,7,0.01
2013-2-6,41.2,35.3,26.6,32.2,25.6,17.5,90,68,54,30.34,29.92,14,5,18,0.00
2013-2-7,39.4,32.1,23.5,24.1,20.4,16.4,79,62,50,30.41,30.18,7,2,11,0.00
2013-2-8,42.3,34.9,30.9,36.2,27.3,17.3,89,74,55,30.18,29.77,23,5,35,0.23
2013-2-9,41.7,31.9,24.8,18.5,12.7,4.2,65,46,25,30.40,29.98,26,10,34,0.01
2013-2-10,47.7,33.6,17.6,21.5,13.5,7.3,69,46,24,30.45,30.16,9,3,16,0.00
2013-2-11,68.7,50.4,34.9,49.4,34.4,17.8,98,61,21,30.17,29.65,17,4,24,0.17
2013-2-12,57.7,48.2,40.8,29.8,22.4,17.1,50,37,23,29.96,29.81,18,6,24,0.00
2013-2-13,43.2,35.4,30.4,33.2,27.1,19.9,99,73,46,29.94,29.65,7,2,10,0.00
2013-2-14,52.5,39.7,31.3,33.7,26.6,21.7,97,61,36,29.99,29.79,13,3,19,0.15
2013-2-15,55.4,41.0,33.4,36.3,29.3,23.4,91,64,40,30.01,29.90,14,3,24,0.20
2013-2-16,36.3,32.3,25.9,29.7,18.4,6.2,87,58,40,30.00,29.87,13,5,21,0.00
2013-2-17,27.1,23.6,19.9,15.9,4.8,-4.5,82,45,26,30.23,29.88,19,8,27,0.00
2013-2-18,46.4,31.2,18.0,17.2,5.6,-1.8,49,34,23,30.37,30.08,12,3,19,0.00
2013-2-19,54.9,41.3,34.0,38.4,26.3,15.2,84,56,35,30.08,29.63,17,6,24,0.06
2013-2-20,36.3,28.9,21.9,16.9,8.4,0.9,51,42,29,30.19,29.84,21,10,32,0.02
2013-2-21,36.5,27.2,21.6,12.9,8.6,3.2,53,45,33,30.33,30.14,17,8,24,0.00
2013-2-22,31.8,28.8,25.7,25.8,18.8,11.0,82,66,52,30.37,30.15,8,3,11,0.00
2013-2-23,52.0,38.4,31.5,40.2,32.2,25.3,98,79,56,30.16,29.82,6,2,8,0.02
2013-2-24,48.6,38.6,29.5,38.8,25.8,13.6,99,63,34,30.14,29.80,22,7,28,0.00
2013-2-25,50.9,35.2,23.7,20.6,16.7,13.4,66,48,27,30.21,30.12,11,2,16,0.00
2013-2-26,38.5,33.2,26.2,38.2,27.1,15.4,99,79,59,30.21,29.63,11,3,15,0.71
2013-2-27,55.0,43.7,36.3,40.1,32.9,27.1,99,69,36,29.69,29.56,14,4,20,0.02
2013-2-28,42.1,39.4,35.8,32.8,25.7,21.2,73,58,45,29.74,29.63,17,5,22,0.00
2013-3-1,39.2,36.3,32.0,27.4,22.5,17.3,65,57,46,29.91,29.73,16,6,20,0.00
2013-3-2,34.5,30.5,27.7,23.6,16.1,12.4,65,55,44,29.96,29.82,15,7,19,4.88
2013-3-3,37.4,30.8,27.1,17.3,13.2,7.5,62,48,33,29.94,29.81,21,9,27,0.00
2013-3-4,43.2,32.3,24.4,13.9,9.8,5.7,51,39,26,30.06,29.94,21,8,30,0.04
2013-3-5,51.3,41.8,31.8,29.9,15.7,9.9,92,37,23,30.06,29.79,11,4,17,0.02
2013-3-6,39.6,34.9,31.1,32.0,29.8,26.8,95,83,61,30.04,29.68,20,5,26,0.07
2013-3-7,45.0,39.4,35.6,27.2,25.0,22.6,65,56,44,30.19,30.03,18,7,22,0.00
2013-3-8,43.9,37.3,33.4,27.2,24.1,21.0,67,59,50,30.32,30.18,21,10,30,0.02
2013-3-9,69.1,43.6,31.8,26.6,22.2,14.7,66,46,17,30.38,30.21,14,4,18,0.00
2013-3-10,65.3,48.9,28.9,28.6,24.0,20.4,74,41,22,30.29,30.13,8,2,14,0.00
2013-3-11,59.2,50.5,43.0,49.1,35.4,21.2,83,58,33,30.16,29.82,10,3,17,0.00
2013-3-12,56.5,49.0,39.6,52.9,40.5,25.9,99,74,49,29.98,29.73,21,8,29,0.56
2013-3-13,46.2,37.8,29.7,29.7,21.5,12.4,80,53,27,30.09,29.89,22,7,28,0.00
2013-3-14,43.5,34.8,28.6,18.8,13.7,10.5,64,42,28,30.17,30.04,24,10,35,0.15
2013-3-15,59.2,45.3,32.9,33.3,22.3,12.9,61,41,26,30.09,29.74,14,4,20,0.00
2013-3-16,60.4,45.1,35.2,42.4,36.2,32.1,90,72,50,29.92,29.60,8,3,10,0.02
2013-3-17,38.8,35.6,33.1,32.6,26.3,20.4,91,70,51,30.25,29.92,7,2,11,0.00
2013-3-18,35.4,31.5,28.9,31.6,29.4,21.4,99,93,57,30.30,29.88,7,2,12,0.02
2013-3-19,57.7,42.8,31.8,42.2,24.7,7.1,99,60,21,29.93,29.68,26,6,38,0.58
2013-3-20,51.3,41.6,33.3,28.0,12.7,3.8,75,33,22,29.97,29.74,19,8,26,0.00
2013-3-21,33.6,29.1,25.5,26.6,10.0,0.5,75,45,28,29.91,29.79,18,8,24,0.00
2013-3-22,46.2,33.3,26.1,18.7,11.6,5.3,50,41,26,30.01,29.86,18,6,25,0.00
2013-3-23,54.9,40.0,24.1,22.5,17.9,14.7,69,43,22,30.03,29.88,16,4,24,0.00
2013-3-24,40.6,33.3,27.9,31.0,23.5,17.5,99,69,45,30.01,29.63,8,2,11,0.00
2013-3-25,45.5,34.6,30.6,34.8,31.6,17.5,99,89,47,29.90,29.50,8,1,11,6.73
2013-3-26,48.2,39.3,33.1,31.9,27.3,23.5,87,64,43,30.02,29.70,19,7,24,0.05
2013-3-27,46.4,39.4,35.1,34.1,25.8,21.5,77,58,43,30.14,30.01,17,8,25,0.00
2013-3-28,46.0,40.5,37.4,29.4,26.8,23.9,68,58,49,30.25,30.08,17,7,24,0.00
2013-3-29,56.3,45.5,36.7,30.6,25.9,18.0,70,49,24,30.25,30.12,14,3,17,0.00
2013-3-30,63.7,47.5,32.2,28.0,23.4,16.3,70,41,20,30.23,30.05,13,2,17,0.00
2013-3-31,50.4,44.5,40.5,47.3,38.0,25.3,99,80,50,30.09,29.73,5,1,7,0.16
2013-4-1,60.6,47.7,37.2,46.3,33.4,13.4,99,59,35,30.00,29.72,23,6,31,0.02
2013-4-2,47.7,39.4,33.1,15.3,9.4,3.3,40,29,21,30.19,29.99,17,6,22,0.00
2013-4-3,49.1,38.6,29.8,15.8,12.4,7.6,50,35,23,30.41,30.18,22,6,26,0.00
2013-4-4,51.1,36.9,22.1,31.7,12.4,5.2,79,39,23,30.42,30.05,8,2,13,0.00
2013-4-5,63.9,48.7,34.0,37.7,26.8,10.5,99,51,21,30.06,29.80,18,6,25,0.00
2013-4-6,61.2,46.4,32.5,24.1,18.6,9.4,60,35,20,30.31,30.06,11,4,17,0.00
2013-4-7,74.3,57.2,39.9,43.7,36.4,24.2,70,47,30,30.20,29.89,12,4,18,0.00
2013-4-8,83.1,69.6,56.5,47.3,43.7,39.4,65,42,23,30.04,29.86,10,3,16,0.00
2013-4-9,89.8,75.5,60.6,55.3,51.4,46.6,63,44,26,30.04,29.88,11,3,16,0.00
2013-4-10,93.6,78.5,63.7,59.2,53.3,49.3,62,43,26,29.95,29.72,17,3,22,0.00
2013-4-11,88.3,73.5,58.1,61.5,55.5,51.9,85,56,33,29.86,29.64,15,3,21,0.00
2013-4-12,74.8,59.8,52.0,63.1,54.1,35.8,99,84,38,29.78,29.52,18,4,27,0.48
2013-4-13,72.1,58.2,48.9,37.9,31.5,21.6,63,39,16,29.95,29.77,13,5,19,0.00
2013-4-14,71.2,55.9,41.5,39.4,34.9,28.0,76,47,23,30.13,29.95,17,4,22,0.00
2013-4-15,66.7,59.1,54.0,52.9,47.1,38.5,87,65,49,30.24,30.08,9,3,14,0.00
2013-4-16,79.0,65.3,54.0,60.6,56.0,50.3,95,74,52,30.25,30.04,18,4,24,0.02
2013-4-17,72.9,65.0,57.0,63.5,59.1,54.9,99,82,64,30.19,30.10,13,3,16,0.15
2013-4-18,77.0,66.9,59.9,63.4,58.6,55.2,95,76,57,30.19,29.90,11,3,20,0.00
2013-4-19,76.5,65.0,51.1,66.0,56.8,35.9,99,75,56,29.90,29.54,15,4,21,0.60
2013-4-20,59.2,50.2,42.3,35.9,25.6,19.7,56,39,24,30.35,29.78,18,8,27,0.00
2013-4-21,57.0,45.0,34.5,26.9,22.9,16.4,62,43,25,30.57,30.35,10,3,14,0.00
2013-4-22,59.4,46.8,34.5,35.1,31.4,25.0,83,57,33,30.54,30.34,11,3,15,0.00
2013-4-23,64.4,48.5,36.0,44.4,38.9,31.2,87,70,46,30.39,30.08,8,2,11,0.00
2013-4-24,81.5,60.3,40.8,58.1,48.5,40.6,99,69,35,30.09,29.69,20,4,28,0.04
2013-4-25,70.9,54.2,42.3,42.0,29.8,20.9,70,43,19,30.29,30.03,18,5,28,0.00
2013-4-26,68.9,54.5,41.0,38.1,34.3,27.0,79,49,27,30.45,30.29,11,3,14,0.00
2013-4-27,74.7,58.5,40.8,43.0,38.8,34.7,84,51,26,30.40,30.21,8,2,11,0.00
2013-4-28,58.3,53.1,47.8,51.2,45.7,39.4,98,77,56,30.24,30.09,8,2,11,0.15
2013-4-29,63.5,55.7,51.8,57.3,53.3,46.6,98,92,75,30.10,29.98,7,2,11,0.01
2013-4-30,60.6,55.8,52.9,57.4,54.3,52.3,98,95,85,30.29,30.08,10,2,12,0.39
2013-5-1,74.7,61.3,52.0,53.3,39.9,27.7,95,51,19,30.40,30.27,8,2,12,0.18
2013-5-2,73.2,58.4,42.3,47.9,43.7,39.3,96,61,33,30.40,30.27,10,2,14,0.02
2013-5-3,72.9,56.8,43.7,50.4,44.3,37.4,99,67,33,30.36,30.22,11,2,15,0.08
2013-5-4,71.4,55.6,41.4,46.4,42.0,37.0,93,64,33,30.32,30.12,12,3,16,0.00
2013-5-5,52.7,45.4,40.6,42.2,40.0,37.3,94,82,63,30.22,30.19,7,1,10,0.04
2013-5-6,57.4,55.5,40.5,57.1,53.9,16.9,99,95,38,30.22,30.00,9,4,15,5.72
2013-5-7,60.8,58.1,53.8,60.3,57.8,52.9,99,99,97,30.00,29.87,13,5,17,9.82
2013-5-8,71.2,57.3,50.2,59.8,53.7,49.9,99,89,57,29.97,29.86,12,1,18,0.03
2013-5-9,77.2,61.7,47.8,59.7,53.6,47.6,99,78,44,29.97,29.87,11,2,21,0.00
2013-5-10,88.0,67.7,52.3,65.1,57.4,51.0,98,73,34,29.98,29.79,15,2,22,0.42
2013-5-11,78.4,66.9,60.8,63.9,59.1,50.7,98,78,48,29.84,29.65,14,3,18,0.55
2013-5-12,62.4,56.3,48.6,51.7,33.7,20.4,73,45,24,30.00,29.73,21,7,28,0.00
2013-5-13,59.7,50.3,43.5,31.6,26.1,16.0,59,41,22,30.15,29.99,17,5,24,0.00
2013-5-14,68.4,52.3,32.7,40.5,33.1,24.8,92,53,24,30.19,29.96,9,2,13,0.00
2013-5-15,97.0,70.5,48.9,64.6,50.5,39.9,85,53,23,29.96,29.58,14,2,20,0.00
2013-5-16,81.3,75.1,65.7,61.9,55.2,48.8,73,51,33,29.91,29.69,17,5,50,10.82
2013-5-17,86.9,73.1,57.0,60.5,57.0,53.5,96,60,34,30.06,29.89,10,2,13,0.00
2013-5-18,71.1,64.4,59.2,61.2,57.9,51.0,99,80,59,30.16,30.04,8,2,11,0.02
2013-5-19,75.2,63.3,57.4,66.4,61.1,57.1,99,93,72,30.16,30.01,6,2,10,0.00
2013-5-20,87.1,73.2,62.8,69.1,66.1,61.7,99,80,53,30.05,29.89,6,1,10,0.00
2013-5-21,94.1,77.6,63.3,70.8,67.0,62.3,98,73,43,29.94,29.78,8,2,13,0.00
2013-5-22,95.0,75.9,64.9,71.8,66.5,58.9,99,77,36,29.88,29.73,10,2,17,0.00
2013-5-23,83.3,68.5,62.8,69.0,64.8,61.9,99,89,58,29.84,29.68,7,1,11,0.00
2013-5-24,63.7,54.5,44.8,62.5,43.7,30.7,98,68,46,30.19,29.71,23,9,34,0.00
2013-5-25,65.3,52.6,41.2,37.5,33.1,29.6,67,49,31,30.20,30.06,19,8,26,0.01
2013-5-26,72.9,59.6,47.7,40.7,33.6,24.7,63,40,18,30.21,30.07,14,5,19,0.00
2013-5-27,69.3,58.8,46.0,52.5,44.3,36.9,89,60,34,30.25,30.13,7,1,10,0.00
2013-5-28,87.6,67.7,52.9,67.7,59.3,52.0,99,77,49,30.16,29.97,8,1,10,0.01
2013-5-29,95.2,79.1,65.5,68.0,63.9,57.1,94,62,34,30.05,29.98,8,2,13,0.02
2013-5-30,96.3,81.0,69.8,68.6,64.9,62.5,78,60,35,30.12,30.03,9,2,12,0.01
2013-5-31,95.0,80.5,66.2,66.1,63.6,59.8,86,59,36,30.10,29.92,8,2,11,0.00
2013-6-1,92.8,81.8,72.1,68.5,65.3,62.6,74,59,41,29.97,29.81,8,2,14,0.00
2013-6-2,85.3,74.6,67.1,73.5,66.9,61.7,99,78,58,29.84,29.77,6,2,12,0.00
2013-6-3,81.3,71.1,62.4,69.4,62.6,40.5,99,76,50,30.16,29.79,14,3,17,10.89
2013-6-4,82.2,65.8,53.8,55.1,48.0,40.6,90,56,26,30.10,29.94,10,3,12,0.00
2013-6-5,81.7,67.5,52.3,59.7,55.3,50.7,95,68,41,30.12,29.96,9,2,14,0.00
2013-6-6,68.2,64.2,62.2,64.3,58.8,51.1,99,84,64,29.99,29.80,7,2,12,0.00
2013-6-7,68.0,65.1,63.1,66.9,64.4,62.3,99,97,92,29.80,29.60,10,2,15,0.04
2013-6-8,86.0,71.2,63.7,64.3,59.6,55.0,92,68,45,30.06,29.70,11,3,16,0.00
2013-6-9,80.4,71.0,62.1,70.7,63.9,58.9,94,79,59,30.15,30.01,8,1,12,0.00
2013-6-10,85.6,70.5,66.6,74.2,68.9,66.3,99,95,65,30.04,29.71,12,1,21,0.17
2013-6-11,82.8,73.4,64.0,67.8,63.7,61.2,99,74,51,29.82,29.74,14,4,20,0.04
2013-6-12,91.9,80.3,71.2,69.7,64.9,61.3,87,61,42,29.82,29.71,11,3,17,0.01
2013-6-13,86.2,72.0,66.2,70.5,65.3,55.7,97,80,55,29.74,29.44,17,5,24,0.41
2013-6-14,80.8,69.5,60.8,56.1,53.3,48.2,73,58,34,29.96,29.61,16,6,23,0.00
2013-6-15,86.2,72.4,59.2,60.0,53.7,43.8,84,55,26,30.04,29.92,11,3,16,0.00
2013-6-16,82.6,72.4,61.5,66.2,60.4,54.1,87,67,53,30.00,29.83,11,2,17,0.00
2013-6-17,90.0,78.0,67.6,69.6,65.2,61.0,91,67,43,29.91,29.80,8,2,11,0.00
2013-6-18,80.1,71.4,67.1,72.5,67.4,63.9,99,88,69,29.87,29.73,9,2,11,0.54
2013-6-19,83.7,70.1,62.8,64.5,60.9,56.0,98,75,42,30.10,29.84,8,2,11,0.75
2013-6-20,82.6,70.6,61.3,67.4,62.9,31.4,98,79,51,30.19,29.95,8,2,13,12.85
2013-6-21,71.6,63.9,59.2,59.3,56.2,54.1,89,76,65,30.23,30.18,3,1,7,0.00
2013-6-24,95.0,79.8,69.3,72.8,69.2,64.2,96,72,43,30.09,29.97,12,2,21,0.25
2013-6-25,97.2,81.5,67.5,72.2,68.0,58.0,95,67,38,29.99,29.81,17,2,24,0.00
2013-6-26,91.9,78.0,67.1,72.8,67.1,60.0,95,71,45,29.89,29.77,11,2,14,0.22
2013-6-27,88.3,76.6,68.2,74.5,69.4,65.6,99,80,56,29.78,29.55,9,2,14,0.14
2013-6-28,89.8,78.3,69.6,71.7,65.8,58.9,86,67,43,29.58,29.41,21,3,31,0.02
2013-6-29,91.4,79.4,68.0,68.2,62.7,57.0,96,60,33,29.66,29.51,8,2,16,0.01
2013-6-30,91.0,76.3,65.7,73.0,68.7,65.1,99,79,47,29.78,29.64,10,1,16,0.02
2013-7-1,87.3,77.0,70.5,72.5,69.9,67.9,94,80,56,29.89,29.77,8,2,11,0.02
2013-7-2,86.0,76.7,72.1,75.0,71.1,68.4,97,84,62,30.08,29.89,8,2,14,0.03
2013-7-3,87.1,76.8,71.6,75.1,71.3,68.1,96,84,63,30.16,30.07,6,1,10,0.04
2013-7-4,91.2,80.6,69.8,74.6,70.9,68.5,98,74,51,30.17,30.07,9,2,16,0.00
2013-7-5,93.6,82.3,71.2,72.6,70.2,66.9,95,69,45,30.15,30.03,8,2,14,0.00
2013-7-6,97.5,83.2,72.9,72.4,70.3,67.1,90,67,43,30.13,29.97,11,2,14,0.00
2013-7-7,94.1,77.9,69.4,73.4,69.4,63.9,99,77,48,30.04,29.91,15,2,29,0.36
2013-7-8,92.1,76.5,66.9,72.3,67.2,62.6,99,77,42,30.06,29.96,5,1,8,0.01
2013-7-9,90.0,80.7,71.6,72.9,70.3,67.7,88,72,50,30.06,29.92,8,2,13,0.01
2013-7-10,90.9,78.8,72.9,74.4,71.1,65.5,91,78,54,29.95,29.77,15,2,23,0.04
2013-7-11,85.8,77.2,71.6,70.5,66.8,62.4,92,72,51,29.88,29.80,12,3,21,0.00
2013-7-12,73.9,68.2,64.2,68.5,65.8,63.3,99,92,77,30.03,29.87,11,3,16,0.50
2013-7-13,88.5,75.2,67.3,72.0,68.8,66.2,98,82,56,30.21,30.01,7,2,11,0.01
2013-7-14,95.7,80.9,69.8,74.4,70.5,67.1,98,74,45,30.27,30.19,6,1,9,0.00
2013-7-15,100.0,82.9,69.3,74.4,70.0,67.0,96,69,38,30.26,30.14,8,2,12,0.00
2013-7-16,96.6,84.2,75.7,74.7,71.0,67.8,89,67,43,30.22,30.11,8,2,12,0.00
2013-7-17,97.2,85.4,75.2,75.2,71.7,68.7,88,66,42,30.19,30.03,11,3,14,0.00
2013-7-18,102.7,87.2,76.3,76.8,73.5,70.5,88,66,40,30.09,29.92,8,2,11,0.00
2013-7-19,101.3,84.0,73.8,76.7,72.9,67.3,94,72,41,29.97,29.79,9,2,14,0.04
2013-7-20,97.0,83.2,72.5,74.6,70.5,66.1,88,68,43,29.86,29.71,11,2,16,0.00
2013-7-21,92.1,78.4,71.1,72.7,69.6,65.9,97,76,47,29.90,29.82,7,1,11,0.03
2013-7-22,90.0,75.2,68.7,78.1,70.9,66.0,99,88,51,30.07,29.69,10,1,15,15.31
2013-7-23,89.2,77.9,70.0,75.1,68.2,62.4,99,75,45,29.72,29.59,14,3,21,0.05
2013-7-24,82.9,74.2,65.8,67.4,62.4,56.1,95,69,44,29.90,29.64,12,4,16,0.02
2013-7-25,81.5,68.4,58.1,58.4,54.9,49.3,85,64,35,30.02,29.89,10,3,12,0.39
2013-7-26,91.8,73.0,55.8,62.5,57.5,51.8,98,62,32,30.06,29.93,6,1,11,0.00
2013-7-27,83.3,71.5,63.9,71.2,66.5,61.5,98,85,59,29.99,29.84,8,1,17,0.00
2013-7-28,89.8,74.2,64.0,70.7,66.8,61.4,99,80,43,29.96,29.80,9,1,16,0.00
2013-7-29,85.1,70.6,56.8,61.8,55.5,50.9,95,62,34,30.13,29.96,9,2,14,0.00
2013-7-30,88.3,73.4,59.5,64.0,58.7,53.5,89,62,38,30.18,30.06,6,1,8,0.00
2013-7-31,82.6,70.4,62.6,68.1,65.0,61.1,99,84,57,30.11,29.94,8,1,17,0.00
2013-8-1,88.5,73.6,65.5,70.9,66.7,63.8,99,81,50,29.95,29.74,9,1,14,0.04
2013-8-2,89.1,77.0,66.7,65.2,61.1,54.5,91,61,34,29.92,29.82,9,2,13,0.00
2013-8-3,77.2,69.8,64.2,70.2,64.1,58.6,99,83,62,29.93,29.88,5,1,9,0.00
2013-8-4,82.4,70.6,62.2,64.5,58.4,51.1,99,69,36,30.01,29.89,14,4,20,0.01
2013-8-5,85.8,70.9,56.7,61.0,54.9,48.1,92,60,31,30.07,29.93,6,2,9,0.02
2013-8-6,82.6,69.5,61.0,67.3,64.1,60.0,99,84,57,30.01,29.94,7,2,11,0.02
2013-8-7,87.4,74.1,68.0,73.4,69.6,66.2,99,87,56,30.00,29.90,8,1,11,0.00
2013-8-8,85.1,75.4,68.7,74.6,71.6,68.4,99,89,68,29.97,29.88,4,1,8,1.25
2013-8-9,87.1,78.2,72.7,77.4,72.4,69.5,99,83,62,29.92,29.81,10,2,14,0.10
2013-8-10,90.1,77.0,69.8,71.1,65.9,55.2,93,72,37,30.04,29.91,6,2,9,0.01
2013-8-11,90.9,77.3,68.5,70.5,67.6,63.1,94,75,44,30.05,29.92,6,1,11,0.00
2013-8-12,91.8,78.4,67.3,70.6,67.0,61.7,99,71,41,29.97,29.85,11,2,16,0.01
2013-8-13,87.1,75.2,66.0,70.5,67.1,57.5,99,78,49,29.85,29.67,14,3,17,0.36
2013-8-14,74.3,65.4,55.9,57.7,50.8,47.2,77,60,43,30.08,29.80,15,5,21,0.00
2013-8-15,83.8,67.2,54.7,55.4,50.4,42.4,91,60,27,30.14,30.02,7,2,9,17.59
2013-8-16,85.3,67.5,52.2,58.7,54.3,49.0,99,67,33,30.16,30.05,8,1,10,0.00
2013-8-17,83.8,68.5,54.0,60.5,57.4,52.9,99,71,43,30.22,30.14,7,1,11,0.00
2013-8-18,72.9,65.0,61.5,63.8,61.2,58.9,98,88,65,30.22,30.13,8,2,9,0.21
2013-8-19,84.4,69.1,59.9,69.9,64.8,59.6,99,87,59,30.14,29.98,5,1,8,0.01
2013-8-20,90.0,74.3,61.7,70.5,63.9,60.2,99,74,42,30.12,30.03,7,1,11,0.00
2013-8-21,93.9,75.9,64.0,72.8,67.5,62.9,98,78,44,30.15,30.00,6,1,12,0.04
2013-8-22,89.6,77.0,66.9,71.0,65.9,62.8,99,71,44,30.07,29.87,10,2,13,17.85
2013-8-23,77.7,69.3,60.3,69.0,65.1,59.2,99,87,58,30.10,29.90,7,1,11,0.32
2013-8-24,88.2,69.3,58.3,64.0,58.9,50.3,99,75,29,30.30,30.09,7,1,10,1.86
2013-8-25,90.7,71.1,55.8,64.1,59.3,54.1,99,71,33,30.36,30.19,6,1,13,0.69
2013-8-26,92.3,76.1,63.9,66.7,62.4,58.9,91,65,36,30.23,29.95,8,2,13,20.76
2013-8-27,88.2,79.0,70.5,71.7,67.9,62.0,83,69,56,29.97,29.83,11,3,17,0.03
2013-8-28,76.8,73.0,69.4,73.9,71.0,67.3,99,94,77,29.89,29.75,5,1,8,0.41
2013-8-29,90.1,76.1,68.0,71.8,69.5,65.5,98,82,47,29.97,29.80,7,2,10,3.06
2013-8-30,93.2,77.2,64.2,71.4,68.0,63.3,99,77,44,29.97,29.80,7,1,11,0.01
2013-8-31,93.2,80.6,71.6,73.4,70.1,66.7,92,72,47,29.83,29.70,5,2,11,24.27
2013-9-1,95.7,78.8,67.3,72.5,68.7,66.9,99,74,43,29.79,29.69,7,1,12,0.00
2013-9-2,95.7,80.3,68.9,73.5,68.9,65.2,99,71,42,29.75,29.64,8,1,12,0.00
2013-9-3,84.9,75.0,63.7,67.7,60.1,53.3,83,62,36,29.95,29.70,14,4,20,0.00
2013-9-4,89.4,70.8,56.8,61.1,55.6,49.1,95,63,30,30.05,29.94,9,2,13,0.00
2013-9-5,83.3,71.0,58.5,61.2,55.9,50.2,85,60,40,30.12,29.96,13,4,19,0.00
2013-9-6,85.1,64.9,52.2,52.1,47.9,41.1,86,58,25,30.23,30.05,8,2,10,0.03
2013-9-7,90.3,68.2,50.7,60.7,53.6,48.8,97,64,27,30.11,29.87,6,1,9,0.00
2013-9-8,90.7,75.2,63.9,66.2,61.6,54.2,87,65,42,30.00,29.80,10,2,15,0.00
2013-9-9,84.2,70.0,60.4,65.4,57.8,49.2,93,67,44,30.16,30.00,8,2,11,24.30
2013-9-10,97.5,80.6,66.4,73.1,69.2,64.9,96,71,42,30.10,29.99,6,2,11,0.04
2013-9-11,99.7,83.7,71.4,73.5,71.2,68.0,93,69,39,30.10,29.92,6,1,8,0.09
2013-9-12,95.9,79.2,69.1,71.3,66.9,61.5,96,69,37,29.96,29.65,11,2,19,0.00
2013-9-13,78.3,67.6,56.7,63.2,54.7,46.1,83,65,34,29.94,29.67,20,6,26,0.00
2013-9-14,69.3,57.4,48.0,49.2,44.9,-39.7,93,66,38,30.25,29.93,14,4,17,24.43
2013-9-15,83.3,63.0,44.8,58.4,51.2,43.6,99,70,36,30.17,30.00,8,2,11,0.00
2013-9-16,76.3,63.7,59.2,60.0,56.5,53.0,99,78,51,30.19,29.97,12,3,17,0.00
2013-9-17,74.1,59.0,47.8,53.9,41.9,29.6,87,58,21,30.39,30.19,9,2,12,0.00
2013-9-18,67.8,48.7,40.1,48.0,42.9,39.8,99,83,45,30.30,30.23,6,1,9,0.00
2013-9-27,65.1,58.5,50.2,56.3,55.0,49.4,97,89,70,30.19,29.94,2,0,3,0.51
2013-9-28,68.2,58.8,50.7,56.8,52.6,49.5,99,82,55,30.26,30.18,6,1,8,0.84
2013-9-29,78.8,59.1,44.8,54.9,49.8,44.0,99,76,34,30.19,29.98,8,1,11,0.74
2013-9-30,82.8,62.6,46.8,55.8,51.3,46.3,99,72,33,30.06,29.89,6,1,8,0.28
2013-10-1,83.7,68.5,55.0,60.7,56.6,51.8,97,69,37,30.03,29.90,12,2,16,0.06
2013-10-2,87.6,70.8,56.8,61.6,57.9,54.8,95,67,36,30.04,29.93,11,2,14,0.06
2013-10-3,90.0,70.7,57.4,64.7,60.9,56.8,99,75,37,30.08,29.95,6,1,8,0.00
2013-10-4,91.8,72.6,60.1,66.4,62.5,59.5,99,75,36,30.06,29.93,8,1,11,0.00
2013-10-5,94.3,75.5,62.2,66.5,63.3,53.4,98,70,35,30.06,29.91,6,1,11,29.60
2013-10-6,92.1,76.9,65.1,66.1,63.3,60.6,92,66,38,29.96,29.80,10,2,16,0.00
2013-10-7,73.0,64.1,54.5,68.4,57.2,43.8,99,80,52,30.04,29.65,15,4,21,0.53
2013-10-8,72.0,58.4,48.0,47.1,44.0,40.5,86,61,35,30.26,30.03,8,2,14,0.00
2013-10-9,61.0,54.0,47.7,49.7,45.6,39.1,92,74,47,30.31,30.21,7,2,10,0.04
2013-10-10,52.9,51.7,50.4,52.3,50.2,47.1,98,95,85,30.22,30.00,14,6,23,1.45
2013-10-11,59.4,55.4,51.6,59.1,54.9,51.3,99,98,97,30.00,29.94,12,6,17,1.56
2013-10-12,73.2,60.2,56.7,61.1,59.5,46.1,99,98,90,30.16,29.88,8,2,12,27.55
2013-10-13,57.7,56.8,55.8,57.5,56.5,55.5,99,99,99,30.28,30.14,8,2,12,0.00
2013-10-14,73.4,58.6,53.1,56.4,54.8,52.5,99,88,54,30.31,30.17,5,1,8,0.00
2013-10-15,76.6,60.3,48.2,60.3,52.4,47.9,99,79,42,30.20,30.03,9,1,11,0.00
2013-10-16,72.9,60.7,50.2,60.3,55.8,49.9,99,85,61,30.05,29.85,5,1,8,0.00
2013-10-17,79.3,64.9,57.2,65.8,59.4,46.3,98,84,53,29.85,29.64,16,2,25,0.00
2013-10-18,69.4,57.0,46.2,46.6,41.1,37.3,90,57,33,29.98,29.82,13,4,21,0.00
2013-10-19,63.7,52.3,41.2,53.6,45.6,38.3,99,79,58,29.97,29.69,16,2,21,0.00
2013-10-20,68.2,52.2,41.7,39.3,34.7,29.5,86,54,27,30.06,29.86,15,3,21,0.00
2013-10-21,72.9,51.0,37.6,43.8,39.5,35.5,96,70,31,30.09,29.87,8,2,17,0.00
2013-10-22,62.4,54.7,50.4,48.1,46.5,44.2,86,74,56,29.87,29.79,9,3,12,0.00